{"data":{"norad_id":67432,"intl_designator":"2026-005AE","name":"STARLINK-36460","alt_names":[],"object_type":"PAYLOAD","status":"ACTIVE","operator":null,"country":"US","launch_date":"2026-01-12","launch_site_code":"AFETR","launch_vehicle":null,"mission":null,"orbit_class":"UNKNOWN","rcs_meters":null,"size_class":null,"mass_kg":null,"dimensions":null,"purposes":["comms"],"wikipedia_slug":null,"has_3d_model":false,"image_url":null,"decayed_at":null,"tle_current":{"epoch":"2026-05-25T01:47:11.411232Z","epoch_age_seconds":71888,"freshness":"FRESH","line1":"1 67432U 26005AE  26145.07443763  .00018083  00000+0  66467-3 0  9998","line2":"2 67432  43.0073 167.0193 0004409 282.8198  77.2161 15.27591656 20365","mean_motion":15.27591656,"eccentricity":0.0004409,"inclination_deg":43.0073,"raan_deg":167.0193,"arg_perigee_deg":282.8198,"mean_anomaly_deg":77.2161,"bstar":0.00066467,"rev_number":2036,"period_min":94.266029429006,"perigee_km":479.98911244292,"apogee_km":486.03927556579,"semimajor_km":6861.1511940044,"source":"CELESTRAK","updated_at":"2026-05-25T13:38:21.558800Z"}}}